sat.trackr.live / text

‹ back to catalog

STARLINK-5117

NORAD 54172 · 2022-141R

PAYLOAD ACTIVE UNKNOWN

§ Identity

Operator
Country
US
Launch date
2022-10-28
Launch site
AFWTR
Launch vehicle
Mass (kg)
RCS (m²)

Purposes: comms

External: N2YO · Heavens-Above · Gunter

§ Orbital elements

Epoch: 2026-09-19T06:55:46.170912Z

Period
93.90 min
Inclination
53.1608°
Eccentricity
0.0001403
Mean motion
15.33546140 rev/d
Perigee alt
464.3 km
Apogee alt
466.2 km
Semi-major
6,843.4 km
B*
2.4115e-5
RAAN
199.6994°
Arg perigee
83.7747°
Mean anomaly
276.3415°
Rev number
21,529

§ Raw data

STARLINK-51171 54172U 22141R   26262.28872883  .00000420  00000+0  24115-4 0  99952 54172  53.1608 199.6994 0001403  83.7747 276.3415 15.33546140215294

JSON: /api/v1/satellites/54172 · /tle

For live sub-satellite position, see the globe view (requires WebGL).

§ Visibility from observer

Set your observer location to see the next 7 days of passes ≥ 10°. The values pass through the URL so the page stays shareable.

No JS? Fill the form by hand. The geolocation button needs JavaScript.